CAPE
35 13 24 43 3 2 2 4 1 1 0 0 0 0 1 1 0 0 4 6 0 0
77 11 7 59 66 49 22 16 7 2 0 0 0 0 0 0 0 0 0 0 0 0
1 9 3 14 21 86 60 24 3 5 4 2 0 0 1 0 0 0 0 0 0 0
0 1 10 6 19 22 39 18 4 2 2 2 1 0 0 1 1 0 0 0 0 0
0 0 7 11 41 4 7 6 2 2 2 3 2 1 2 2 2 3 1 0 0 0
1 0 0 3 2 1 0 7 4 1 0 0 0 0 0 0 1 1 0 0 0 0
2 1 1 0 0 3 0 7 0 1 0 0 0 0 0 0 1 1 2 3 3 0
2 1 1 0 0 0 0 1 2 4 0 0 0 0 0 0 0 0 2 1 1 0
2 1 1 0 0 0 2 4 10 5 2 1 0 0 0 0 0 0 0 0 0 0
5 2 1 1 1 0 0 3 3 3 2 1 0 0 0 0 0 1 1 0 0 0
3 3 2 1 2 2 1 1 1 1 2 2 1 0 0 0 0 1 0 0 0 0
2 2 2 2 1 2 1 1 1 0 0 0 0 1 0 0 1 1 0 0 0 0
4 2 1 2 0 1 2 2 2 1 1 2 0 0 1 0 0 0 0 0 0 0
6 6 2 1 0 0 1 0 1 2 2 1 2 2 0 0 0 0 0 0 0 0
CIN
-5 -22 -13 -10 0 0 0 0 0 0 0 0 0 0 0 0 0 0 0 -1 0 0
0 -19 -16 -1 -12 -40 -58 -35 0 0 0 0 0 0 0 0 0 0 0 0 0 0
0 -14 -32 -8 -14 -7 -16 -22 0 -7 0 0 0 0 0 0 0 0 0 0 0 0
0 -1 -8 -5 -10 -21 -8 -6 0 0 -25 -8 0 0 0 0 0 0 0 0 0 0
0 0 -6 -8 0 -6 -7 0 0 0 0 0 0 0 0 0 0 0 0 0 0 0
0 0 0 -2 -26 -28 -6 -3 -9 0 0 0 0 0 0 0 0 0 0 0 0 0
0 0 0 0 0 -12 0 0 0 0 0 0 0 0 0 0 0 0 0 0 0 0
0 0 0 0 0 0 0 -2 0 0 0 0 0 0 0 0 0 0 0 -1 0 0
0 0 0 0 0 0 0 0 0 0 0 0 0 0 0 0 0 0 0 0 0 0
0 0 0 0 0 0 0 0 0 0 0 0 0 0 0 0 0 0 0 0 0 0
0 0 0 0 0 0 0 0 0 0 0 0 0 0 0 0 0 0 0 0 0 0
0 0 0 0 0 0 0 0 0 0 0 0 0 0 0 0 0 0 0 0 0 0
0 0 0 0 0 0 0 0 0 0 0 0 0 0 0 0 0 0 0 0 0 0
0 0 0 0 0 0 0 0 0 0 0 0 0 0 0 0 0 0 0 0 0 0
Wind_Speed
14 8 9 14 11 10 11 13 18 14 13 17 12 12 14 11 10 11 10 14 13 9
12 12 9 11 12 11 14 12 17 19 16 15 15 14 14 9 12 10 11 11 11 9
7 12 11 8 11 13 13 14 16 17 19 17 14 15 16 13 10 12 10 8 11 13
7 5 11 10 10 12 12 13 14 15 17 17 16 15 14 15 15 15 14 13 12 14
8 9 9 10 13 10 12 12 14 14 15 16 15 15 16 17 14 17 17 15 11 15
9 8 7 4 9 10 9 11 13 13 13 12 12 14 13 13 15 14 12 12 14 16
10 9 8 6 2 9 8 10 13 14 14 12 11 11 13 14 14 14 15 14 16 16
10 9 8 7 6 1 7 6 8 11 11 10 11 9 12 11 14 13 14 12 13 14
11 9 9 8 7 5 6 9 10 10 10 10 7 11 13 11 11 11 11 11 12 10
12 11 10 9 7 7 5 4 8 8 9 10 8 11 13 13 9 10 10 11 9 8
13 12 11 10 9 8 6 5 3 6 7 6 6 11 12 12 8 8 8 9 10 10
13 13 12 12 9 9 7 7 6 5 5 3 2 7 11 11 8 7 7 7 8 8
13 12 12 12 10 8 7 9 7 10 9 10 5 1 10 11 6 6 5 4 5 9
14 12 12 11 10 10 9 11 11 10 10 11 13 12 10 7 5 5 5 4 3 3
Wind_Direction
190 191 208 202 193 185 184 191 191 188 188 200 193 196 198 196 199 203 202 211 213 213
192 183 197 205 190 189 192 198 193 191 191 196 196 188 190 190 194 194 203 214 213 217
309 188 179 208 200 197 196 195 194 193 196 195 199 195 196 201 199 195 203 203 210 221
332 238 183 182 194 204 201 196 194 192 195 195 196 195 197 206 202 202 206 203 205 220
344 339 183 187 194 188 195 198 195 193 192 196 197 198 203 208 207 208 205 206 203 217
355 353 357 205 181 178 186 197 199 192 191 186 193 195 200 205 208 210 205 211 213 219
352 348 342 342 285 179 182 203 203 195 194 179 186 193 197 204 207 209 215 216 215 219
349 346 349 355 341 268 175 193 187 198 193 180 183 189 196 204 210 212 216 215 217 215
359 360 357 355 354 349 202 192 196 195 191 186 185 182 191 193 205 204 201 207 207 207
357 4 1 360 10 10 355 203 184 185 186 194 191 176 186 190 200 199 200 204 198 202
1 3 3 8 16 4 10 344 162 178 183 177 193 180 185 186 198 200 202 199 196 196
357 4 3 11 7 7 24 30 40 50 61 109 158 199 185 175 186 187 190 188 191 200
358 5 6 8 13 11 29 43 44 51 41 37 34 347 184 175 173 181 174 170 192 199
4 4 8 14 19 22 30 48 37 35 39 34 32 38 62 163 166 172 160 165 168 186